Date,TemperatureHighF,TemperatureAvgF,TemperatureLowF,DewpointHighF,DewpointAvgF,DewpointLowF,HumidityHigh,HumidityAvg,HumidityLow,PressureMaxIn,PressureMinIn,WindSpeedMaxMPH,WindSpeedAvgMPH,GustSpeedMaxMPH,PrecipitationSumIn
2014-1-1,55,41,28,23,19,15,66,43,23,30.33,30.14,14,6,0,0.00
2014-1-2,52,36,21,24,17,12,82,49,21,30.40,30.26,7,3,0,0.00
2014-1-3,52,36,23,20,16,12,71,46,24,30.26,29.96,7,2,0,0.00
2014-1-4,34,34,34,19,19,19,53,53,53,29.95,29.95,2,2,0,0.00
2014-1-6,44,40,33,2,0,-1,26,18,15,30.45,30.31,9,7,0,0.00
2014-1-7,44,36,27,6,5,3,37,27,18,30.30,30.11,5,2,0,0.00
2014-1-8,51,34,20,14,10,4,59,37,22,30.17,30.04,6,2,0,0.00
2014-1-9,43,36,21,17,15,12,70,43,31,30.11,29.95,3,0,0,0.00
2014-1-10,54,41,29,21,17,14,54,38,23,30.04,29.84,23,6,0,0.00
2014-1-11,57,45,36,23,17,-100,53,36,27,30.29,30.09,9,4,10,0.00
2014-1-12,58,41,31,22,15,3,63,37,18,30.19,29.88,18,6,0,0.00
2014-1-13,49,38,25,16,12,7,49,34,22,30.38,30.21,14,7,0,0.00
2014-1-14,54,42,29,17,15,13,52,35,19,30.44,30.24,13,6,0,0.00
2014-1-21,56,38,22,17,12,8,59,37,20,30.51,30.27,7,3,0,0.00
2014-1-22,46,34,25,13,10,6,48,37,25,30.27,29.99,7,3,0,0.00
2014-1-23,41,31,20,20,15,11,70,53,37,30.55,30.03,11,5,0,0.00
2014-1-24,42,28,12,18,13,7,83,57,36,30.56,30.38,7,2,0,0.00
2014-1-25,56,36,22,16,10,-100,65,39,14,30.41,30.13,7,1,0,0.00
2014-1-26,61,44,29,18,10,3,39,25,12,30.13,29.96,10,4,0,0.00
2014-1-27,48,36,29,22,17,11,61,46,33,30.13,29.96,9,3,2,0.00
2014-1-28,51,42,31,15,7,-3,48,25,14,30.19,29.98,9,4,2,0.00
2014-1-29,58,39,23,12,7,4,45,28,14,30.22,29.96,8,3,0,0.00